Location: Bucharest
(44.4268°N, 26.1025°E)
Time: 13:16:46
(UTC+03:00)

ESTCUBE 1 - Pass Details

Date: 07 July 2022
Orbit: 645 x 657 km, 97.9° (Epoch: 15 August)

Event Time Altitude Azimuth Distance (km) Brightness Sun altitude
Exits shadow 22:25:08 14° 114° (ESE) 1,767 ? -12.0°
Maximum altitude 22:27:55 26° 66° (ENE) 1,295 ? -12.3°
Drops below altitude 10° 22:31:36 10° 11° (N) 2,063 ? -12.7°
Sets 22:34:06 0° 359° (N) 2,981 ? -13.0°
